This demonstration page uses our WeatherBlox Daily Observations layout. Learn more.

Hourly Observations for May 28, 2018

Temp ( °F °C ) Dew Point ( °F °C ) Humidity (%) Winds ( mph kmh ) Pressure ( in mb ) Visibility ( mi km ) Precip ( " mm )
12:54 am 00:54 Clear 79 26.1 63 17.2 58 58 S 10 17 29.84 1011 10 16.0934 0 0
1:54 am 01:54 Clear 80 26.7 65 18.3 60 60 SSW 12 19 29.85 1011 10 16.0934 0 0
2:54 am 02:54 Clear 75 23.9 65 18.3 71 71 SSW 5 7 29.86 1011 10 16.0934 0 0
3:54 am 03:54 Clear 70 21.1 64 17.8 82 82 Calm 29.88 1012 10 16.0934 0 0
4:54 am 04:54 Clear 68 20 64 17.8 87 87 NNE 5 7 29.88 1012 10 16.0934 0 0
5:54 am 05:54 Clear 68 20 64 17.8 87 87 Calm 29.88 1012 10 16.0934 0 0
6:54 am 06:54 Sunny 66 18.9 63 17.2 90 90 N 6 9 29.9 1013 9 14.48406 0 0
7:54 am 07:54 Sunny 74 23.3 66 18.9 76 76 Calm 29.92 1013 10 16.0934 0 0
8:54 am 08:54 Sunny 81 27.2 69 20.6 67 67 Calm 29.92 1013 10 16.0934 0 0.0254
9:54 am 09:54 Sunny 83 28.3 66 18.9 57 57 SW 7 11 29.92 1013 10 16.0934 0 0
10:54 am 10:54 Sunny 87 30.6 66 18.9 50 50 Calm 29.92 1013 10 16.0934 0 0
11:54 am 11:54 Sunny 87 30.6 63 17.2 45 45 Calm 29.92 1013 10 16.0934 0 0
12:54 pm 12:54 Sunny 89 31.7 63 17.2 42 42 E 6 9 29.9 1013 10 16.0934 0 0
1:54 pm 13:54 Sunny 93 33.9 61 16.1 34 34 ESE 10 17 29.87 1011 10 16.0934 0 0
2:54 pm 14:54 Partly Cloudy 93 33.9 59 15 32 32 VRB 6 9 29.85 1011 10 16.0934 0 0
3:54 pm 15:54 Mostly Sunny 92 33.3 56 13.3 30 30 SSE 14 22 29.85 1011 10 16.0934 0 0
4:54 pm 16:54 Sunny 94 34.4 59 15 31 31 S 10 17 29.83 1010 10 16.0934 0 0
5:54 pm 17:54 Mostly Sunny 92 33.3 55 12.8 29 29 WSW 26 43 29.84 1011 10 16.0934 0 0
6:10 pm 18:10 Mostly Cloudy 83 28.3 58 14.4 43 43 WNW 28 44 29.85 1011 10 16.0934 0 0
6:54 pm 18:54 Partly Cloudy 79 26.1 60 15.6 52 52 NW 16 26 29.85 1011 10 16.0934 0 0
7:54 pm 19:54 Mostly Cloudy 78 25.6 61 16.1 56 56 ENE 6 9 29.87 1012 10 16.0934 0 0
8:54 pm 20:54 Mostly Clear 74 23.3 60 15.6 62 62 N 5 7 29.84 1010 10 16.0934 0 0
9:54 pm 21:54 Clear 74 23.3 59 15 60 60 NNE 3 6 29.83 1010 10 16.0934 0 0
10:54 pm 22:54 Clear 70 21.1 61 16.1 73 73 S 7 11 29.85 1011 10 16.0934 0 0
11:54 pm 23:54 Clear 71 21.7 62 16.7 73 73 SW 5 7 29.85 1011 10 16.0934 0 0

Powered by AerisWeather